Powrót do katalogu

STARLINK-6076

AktywnyŁącznośćVLEO
NORAD 56100·PAYLOAD·🇺🇸 United States

Wystrzelony Mar 29, 2023 z Cape Canaveral Space Force Station

Loading…

Następne Przeloty (najbliższe 24 godziny)

TLE

ŚwieżeSource: CelesTrak SupGP

Epoka: Sep 14, 2026, 20:44 UTC

1 56100C 23046H   26257.86437500 -.00018592  00000+0 -67346-3 0  2574
2 56100  43.0007 172.8559 0001466 261.0395 235.8111 15.27584118    12

Śledź STARLINK-6076 w czasie rzeczywistym z AllMySat

Download on the App Store